KHB103 UHPP-UHHH

Flight info

Callsign KHB103
Flight time 2h 21m
Altitude 36000
Route SAMIK4M SAMIK T577 UB P176 FI N222 TOMSU TOMSU6G
Aircraft A320/M-SDE3FGHIRWY/LB1

Departure

Time 2026-05-05 02:16
Airport Yelizovo Airport (UHPP)

Arrival

Time 2026-05-05 04:37
Airport Khabarovsk Novy Airport (UHHH)
Time Latitude Longitude Altitude Speed Heading
2026-05-05 02:03 53.16917 158.42985 144 ft 0 kts 58°
2026-05-05 02:08 53.16918 158.42987 144 ft 0 kts 58°
2026-05-05 02:08 53.16922 158.42999 171 ft 3 kts 55°
2026-05-05 02:09 53.16936 158.43022 144 ft 5 kts 38°
2026-05-05 02:09 53.16967 158.43032 144 ft 5 kts 352°
2026-05-05 02:09 53.16999 158.43008 144 ft 5 kts 330°
2026-05-05 02:09 53.17031 158.42979 144 ft 6 kts 334°
2026-05-05 02:10 53.17069 158.42972 144 ft 6 kts 14°
2026-05-05 02:10 53.17099 158.43014 144 ft 6 kts 51°
2026-05-05 02:10 53.17122 158.43070 144 ft 6 kts 56°
2026-05-05 02:10 53.17143 158.43133 144 ft 6 kts 62°
2026-05-05 02:11 53.17165 158.43200 144 ft 7 kts 62°
2026-05-05 02:11 53.17192 158.43272 144 ft 8 kts 55°
2026-05-05 02:11 53.17223 158.43355 144 ft 9 kts 58°
2026-05-05 02:11 53.17257 158.43450 144 ft 10 kts 61°
2026-05-05 02:12 53.17293 158.43554 144 ft 11 kts 60°
2026-05-05 02:12 53.17372 158.43779 144 ft 12 kts 59°
2026-05-05 02:12 53.17414 158.43898 145 ft 12 kts 60°
2026-05-05 02:13 53.17456 158.44023 145 ft 12 kts 64°
2026-05-05 02:13 53.17490 158.44155 146 ft 13 kts 68°
2026-05-05 02:13 53.17523 158.44290 146 ft 12 kts 66°
2026-05-05 02:13 53.17554 158.44409 148 ft 6 kts 68°
2026-05-05 02:14 53.17567 158.44463 149 ft 4 kts 67°
2026-05-05 02:14 53.17577 158.44500 149 ft 3 kts 66°
2026-05-05 02:14 53.17589 158.44539 150 ft 6 kts 63°
2026-05-05 02:14 53.17591 158.44593 149 ft 5 kts 126°
2026-05-05 02:15 53.17580 158.44608 149 ft 0 kts 147°
2026-05-05 02:15 53.17554 158.44630 149 ft 24 kts 155°
2026-05-05 02:15 53.16984 158.45028 147 ft 104 kts 156°
2026-05-05 02:15 53.16479 158.45380 146 ft 133 kts 158°
2026-05-05 02:16 53.15237 158.46183 815 ft 134 kts 159°
2026-05-05 02:16 53.14665 158.46549 1221 ft 134 kts 156°
2026-05-05 02:16 53.13770 158.47185 1660 ft 149 kts 151°
2026-05-05 02:16 53.12754 158.47927 1908 ft 170 kts 148°
2026-05-05 02:17 53.11592 158.48775 2148 ft 195 kts 148°
2026-05-05 02:17 53.10265 158.49730 2471 ft 220 kts 149°
2026-05-05 02:17 53.08806 158.50757 3100 ft 231 kts 149°
2026-05-05 02:17 53.07316 158.51774 4053 ft 231 kts 150°
2026-05-05 02:18 53.05831 158.52779 4999 ft 230 kts 150°
2026-05-05 02:18 53.04347 158.53785 5903 ft 231 kts 150°
2026-05-05 02:18 53.02861 158.54791 6753 ft 230 kts 151°
2026-05-05 02:18 53.01378 158.55800 7617 ft 230 kts 152°
2026-05-05 02:19 52.99870 158.56717 8432 ft 236 kts 163°
2026-05-05 02:19 52.98185 158.56573 9246 ft 254 kts 188°
2026-05-05 02:19 52.96618 158.54988 9981 ft 281 kts 216°
2026-05-05 02:19 52.95625 158.52006 10671 ft 315 kts 247°
2026-05-05 02:20 52.95474 158.48213 11073 ft 346 kts 264°
2026-05-05 02:20 52.95723 158.44082 11218 ft 374 kts 272°
2026-05-05 02:20 52.96201 158.39702 11394 ft 397 kts 275°
2026-05-05 02:20 52.96784 158.35173 11846 ft 406 kts 276°
2026-05-05 02:21 52.97374 158.30566 12436 ft 410 kts 275°
2026-05-05 02:21 52.97922 158.25895 13050 ft 414 kts 274°
2026-05-05 02:21 52.98416 158.21177 13625 ft 417 kts 272°
2026-05-05 02:21 52.98873 158.16410 14190 ft 419 kts 272°
2026-05-05 02:22 52.99307 158.11615 14731 ft 422 kts 271°
2026-05-05 02:22 52.99734 158.06782 15296 ft 424 kts 271°
2026-05-05 02:22 53.00163 158.01927 15877 ft 426 kts 272°
2026-05-05 02:22 53.00596 157.97108 16479 ft 428 kts 272°
2026-05-05 02:23 53.01043 157.92222 17071 ft 429 kts 272°
2026-05-05 02:23 53.01495 157.87317 17654 ft 430 kts 272°
2026-05-05 02:23 53.01947 157.82393 18155 ft 432 kts 272°
2026-05-05 02:23 53.02398 157.77455 18672 ft 434 kts 272°
2026-05-05 02:24 53.02843 157.72506 19187 ft 435 kts 272°
2026-05-05 02:24 53.03289 157.67497 19704 ft 437 kts 272°
2026-05-05 02:24 53.03543 157.62485 20126 ft 433 kts 263°
2026-05-05 02:24 53.03298 157.57540 20552 ft 427 kts 253°
2026-05-05 02:25 53.02610 157.52772 20983 ft 424 kts 248°
2026-05-05 02:25 53.01839 157.48030 21419 ft 427 kts 248°
2026-05-05 02:25 53.01066 157.43254 21863 ft 430 kts 248°
2026-05-05 02:25 53.00291 157.38448 22283 ft 432 kts 248°
2026-05-05 02:26 52.99511 157.33612 22705 ft 435 kts 248°
2026-05-05 02:26 52.98723 157.28741 23062 ft 438 kts 249°
2026-05-05 02:26 52.97927 157.23842 23393 ft 440 kts 248°
2026-05-05 02:26 52.97127 157.18936 23734 ft 443 kts 248°
2026-05-05 02:27 52.96317 157.13979 24076 ft 445 kts 248°
2026-05-05 02:27 52.95506 157.09014 24399 ft 447 kts 248°
2026-05-05 02:27 52.94701 157.04103 24717 ft 449 kts 248°
2026-05-05 02:27 52.93876 156.99095 25036 ft 451 kts 248°
2026-05-05 02:28 52.93041 156.94065 25355 ft 454 kts 248°
2026-05-05 02:28 52.92197 156.89018 25676 ft 456 kts 248°
2026-05-05 02:28 52.91346 156.83939 26005 ft 458 kts 248°
2026-05-05 02:28 52.90491 156.78833 26324 ft 461 kts 248°
2026-05-05 02:29 52.89630 156.73709 26639 ft 463 kts 248°
2026-05-05 02:29 52.88761 156.68559 27002 ft 464 kts 248°
2026-05-05 02:29 52.87893 156.63420 27460 ft 463 kts 248°
2026-05-05 02:29 52.87030 156.58302 27920 ft 462 kts 247°
2026-05-05 02:30 52.86167 156.53190 28381 ft 461 kts 247°
2026-05-05 02:30 52.85301 156.48074 28827 ft 461 kts 247°
2026-05-05 02:30 52.84433 156.42970 29276 ft 460 kts 247°
2026-05-05 02:30 52.83562 156.37882 29673 ft 459 kts 247°
2026-05-05 02:31 52.82690 156.32815 30096 ft 457 kts 247°
2026-05-05 02:31 52.81830 156.27780 30556 ft 456 kts 249°
2026-05-05 02:31 52.81241 156.22610 31006 ft 459 kts 254°
2026-05-05 02:31 52.80753 156.17419 31477 ft 456 kts 254°
2026-05-05 02:32 52.80276 156.12320 31961 ft 453 kts 254°
2026-05-05 02:32 52.79794 156.07197 32441 ft 450 kts 254°
2026-05-05 02:32 52.79312 156.02107 32931 ft 447 kts 254°
2026-05-05 02:32 52.78826 155.97060 33369 ft 444 kts 254°
2026-05-05 02:33 52.78340 155.92038 33754 ft 441 kts 254°
2026-05-05 02:33 52.77852 155.87051 34126 ft 438 kts 254°
2026-05-05 02:33 52.77364 155.82111 34479 ft 436 kts 254°
2026-05-05 02:33 52.76879 155.77185 34823 ft 433 kts 254°
2026-05-05 02:34 52.76392 155.72281 35080 ft 432 kts 254°
2026-05-05 02:34 52.75402 155.62417 35139 ft 441 kts 254°
2026-05-05 02:35 52.74384 155.52394 35137 ft 444 kts 254°
2026-05-05 02:35 52.73348 155.42327 35132 ft 445 kts 254°
2026-05-05 02:36 52.72308 155.32265 35133 ft 445 kts 254°
2026-05-05 02:36 52.71273 155.22188 35137 ft 445 kts 254°
2026-05-05 02:37 52.70231 155.12191 35139 ft 445 kts 254°
2026-05-05 02:37 52.69177 155.02124 35141 ft 445 kts 254°
2026-05-05 02:38 52.68106 154.92068 35143 ft 445 kts 254°
2026-05-05 02:38 52.67018 154.82025 35147 ft 445 kts 254°
2026-05-05 02:39 52.65929 154.71945 35146 ft 445 kts 254°
2026-05-05 02:39 52.64843 154.61962 35146 ft 445 kts 253°
2026-05-05 02:40 52.63739 154.51901 35148 ft 446 kts 253°
2026-05-05 02:40 52.62616 154.41852 35147 ft 446 kts 253°
2026-05-05 02:41 52.61480 154.31872 35151 ft 446 kts 253°
2026-05-05 02:41 52.60322 154.21844 35144 ft 446 kts 253°
2026-05-05 02:42 52.59169 154.11823 35139 ft 446 kts 253°
2026-05-05 02:42 52.58006 154.01795 35135 ft 446 kts 253°
2026-05-05 02:43 52.56834 153.91763 35134 ft 447 kts 254°
2026-05-05 02:43 52.55662 153.81790 35132 ft 447 kts 253°
2026-05-05 02:44 52.54466 153.71754 35133 ft 448 kts 253°
2026-05-05 02:44 52.53265 153.61729 35131 ft 448 kts 253°
2026-05-05 02:45 52.52053 153.51687 35132 ft 448 kts 253°
2026-05-05 02:45 52.50839 153.41638 35130 ft 449 kts 253°
2026-05-05 02:46 52.49611 153.31602 35128 ft 449 kts 253°
2026-05-05 02:46 52.48367 153.21570 35124 ft 449 kts 253°
2026-05-05 02:47 52.47123 153.11534 35124 ft 449 kts 253°
2026-05-05 02:47 52.45873 153.01502 35123 ft 449 kts 253°
2026-05-05 02:48 52.44609 152.91474 35123 ft 449 kts 253°
2026-05-05 02:48 52.43327 152.81440 35123 ft 449 kts 253°
2026-05-05 02:49 52.42048 152.71421 35115 ft 449 kts 253°
2026-05-05 02:49 52.40762 152.61410 35118 ft 449 kts 253°
2026-05-05 02:50 52.39474 152.51470 35106 ft 449 kts 253°
2026-05-05 02:50 52.38165 152.41469 35111 ft 450 kts 253°
2026-05-05 02:51 52.36847 152.31457 35118 ft 450 kts 253°
2026-05-05 02:51 52.35519 152.21454 35114 ft 450 kts 253°
2026-05-05 02:52 52.34181 152.11460 35114 ft 450 kts 253°
2026-05-05 02:52 52.32846 152.01479 35124 ft 450 kts 254°
2026-05-05 02:53 52.31501 151.91489 35129 ft 450 kts 253°
2026-05-05 02:53 52.30135 151.81504 35137 ft 450 kts 253°
2026-05-05 02:54 52.28772 151.71587 35139 ft 450 kts 254°
2026-05-05 02:54 52.27400 151.61618 35150 ft 450 kts 254°
2026-05-05 02:55 52.26017 151.51656 35157 ft 450 kts 254°
2026-05-05 02:55 52.24627 151.41703 35167 ft 450 kts 254°
2026-05-05 02:56 52.23230 151.31744 35175 ft 450 kts 254°
2026-05-05 02:56 52.21887 151.21779 35188 ft 450 kts 255°
2026-05-05 02:57 52.20562 151.11795 35193 ft 450 kts 255°
2026-05-05 02:57 52.19219 151.01836 35204 ft 450 kts 254°
2026-05-05 02:58 52.17855 150.91891 35214 ft 450 kts 254°
2026-05-05 02:58 52.16487 150.81960 35218 ft 449 kts 254°
2026-05-05 02:59 52.15106 150.72036 35231 ft 449 kts 254°
2026-05-05 02:59 52.13726 150.62200 35237 ft 449 kts 254°
2026-05-05 03:00 52.12340 150.52300 35246 ft 448 kts 254°
2026-05-05 03:00 52.10953 150.42426 35254 ft 448 kts 254°
2026-05-05 03:01 52.09547 150.32574 35264 ft 447 kts 254°
2026-05-05 03:01 52.08127 150.22748 35270 ft 446 kts 254°
2026-05-05 03:02 52.06714 150.12929 35282 ft 446 kts 254°
2026-05-05 03:02 52.05293 150.03126 35287 ft 446 kts 253°
2026-05-05 03:03 52.03839 149.93343 35290 ft 445 kts 253°
2026-05-05 03:03 52.02372 149.83956 35297 ft 445 kts 253°
2026-05-05 03:04 52.00832 149.74231 35315 ft 445 kts 253°
2026-05-05 03:04 51.99299 149.64509 35317 ft 445 kts 253°
2026-05-05 03:05 51.97764 149.54800 35323 ft 444 kts 253°
2026-05-05 03:05 51.96222 149.45092 35330 ft 444 kts 253°
2026-05-05 03:06 51.94931 149.37029 35334 ft 444 kts 253°
2026-05-05 03:06 51.93098 149.25704 35345 ft 444 kts 252°
2026-05-05 03:07 51.91543 149.16090 35348 ft 444 kts 253°
2026-05-05 03:07 51.89969 149.06414 35357 ft 444 kts 253°
2026-05-05 03:08 51.88385 148.96754 35359 ft 444 kts 253°
2026-05-05 03:08 51.86798 148.87106 35367 ft 444 kts 253°
2026-05-05 03:09 51.85471 148.79089 35370 ft 443 kts 253°
2026-05-05 03:09 51.83601 148.67843 35372 ft 443 kts 253°
2026-05-05 03:10 51.82265 148.59863 35372 ft 442 kts 253°
2026-05-05 03:10 51.80650 148.50282 35379 ft 442 kts 253°
2026-05-05 03:11 51.79033 148.40711 35400 ft 441 kts 253°
2026-05-05 03:11 51.77409 148.31163 35398 ft 441 kts 252°
2026-05-05 03:12 51.75775 148.21631 35408 ft 440 kts 253°
2026-05-05 03:12 51.74137 148.12114 35419 ft 439 kts 252°
2026-05-05 03:13 51.72506 148.02717 35421 ft 438 kts 253°
2026-05-05 03:13 51.70868 147.93256 35424 ft 437 kts 252°
2026-05-05 03:14 51.69223 147.83826 35435 ft 437 kts 253°
2026-05-05 03:14 51.67567 147.74412 35440 ft 436 kts 253°
2026-05-05 03:15 51.65910 147.65025 35445 ft 435 kts 253°
2026-05-05 03:15 51.64245 147.55653 35450 ft 435 kts 253°
2026-05-05 03:16 51.62564 147.46293 35456 ft 435 kts 253°
2026-05-05 03:16 51.60891 147.36945 35462 ft 435 kts 253°
2026-05-05 03:17 51.59210 147.27607 35470 ft 434 kts 253°
2026-05-05 03:17 51.57518 147.18298 35474 ft 434 kts 253°
2026-05-05 03:18 51.55816 147.08981 35480 ft 434 kts 253°
2026-05-05 03:18 51.54121 146.99742 35487 ft 434 kts 253°
2026-05-05 03:19 51.51554 146.85802 35489 ft 434 kts 253°
2026-05-05 03:19 51.49838 146.76517 35493 ft 434 kts 253°
2026-05-05 03:20 51.48097 146.67211 35503 ft 434 kts 253°
2026-05-05 03:20 51.46362 146.57981 35509 ft 434 kts 253°
2026-05-05 03:21 51.44609 146.48667 35521 ft 435 kts 253°
2026-05-05 03:21 51.42858 146.39409 35524 ft 435 kts 253°
2026-05-05 03:22 51.41098 146.30153 35532 ft 435 kts 252°
2026-05-05 03:22 51.39295 146.20921 35539 ft 435 kts 252°
2026-05-05 03:23 51.37473 146.11664 35543 ft 435 kts 252°
2026-05-05 03:23 51.35655 146.02422 35548 ft 435 kts 252°
2026-05-05 03:24 51.33836 145.93198 35556 ft 435 kts 252°
2026-05-05 03:24 51.31999 145.83943 35557 ft 435 kts 252°
2026-05-05 03:25 51.30164 145.74757 35567 ft 436 kts 252°
2026-05-05 03:25 51.28317 145.65521 35567 ft 435 kts 252°
2026-05-05 03:26 51.26465 145.56297 35573 ft 435 kts 252°
2026-05-05 03:26 51.24613 145.47150 35566 ft 435 kts 252°
2026-05-05 03:27 51.22734 145.37903 35571 ft 436 kts 252°
2026-05-05 03:27 51.20862 145.28767 35574 ft 436 kts 252°
2026-05-05 03:28 51.18969 145.19544 35576 ft 436 kts 252°
2026-05-05 03:28 51.17072 145.10349 35581 ft 436 kts 252°
2026-05-05 03:29 51.15170 145.01178 35582 ft 437 kts 252°
2026-05-05 03:29 51.13271 144.92022 35585 ft 437 kts 252°
2026-05-05 03:30 51.11365 144.82845 35589 ft 438 kts 252°
2026-05-05 03:30 51.09429 144.73619 35593 ft 438 kts 252°
2026-05-05 03:31 51.07504 144.64477 35597 ft 438 kts 252°
2026-05-05 03:31 51.05544 144.55264 35601 ft 438 kts 252°
2026-05-05 03:32 51.03607 144.46165 35597 ft 438 kts 252°
2026-05-05 03:32 51.01653 144.36995 35597 ft 437 kts 252°
2026-05-05 03:33 50.99706 144.27857 35597 ft 437 kts 252°
2026-05-05 03:33 50.97790 144.18715 35596 ft 437 kts 252°
2026-05-05 03:34 50.95863 144.09537 35593 ft 437 kts 252°
2026-05-05 03:34 50.93934 144.00434 35596 ft 437 kts 252°
2026-05-05 03:35 50.91979 143.91278 35601 ft 438 kts 252°
2026-05-05 03:35 50.90019 143.82147 35599 ft 438 kts 252°
2026-05-05 03:36 50.88058 143.73067 35598 ft 437 kts 252°
2026-05-05 03:36 50.86076 143.63943 35591 ft 437 kts 252°
2026-05-05 03:37 50.84105 143.54881 35591 ft 437 kts 252°
2026-05-05 03:37 50.82110 143.45766 35587 ft 437 kts 252°
2026-05-05 03:38 50.80121 143.36732 35587 ft 436 kts 252°
2026-05-05 03:38 50.78125 143.27718 35586 ft 436 kts 252°
2026-05-05 03:39 50.76114 143.18674 35590 ft 435 kts 252°
2026-05-05 03:39 50.74108 143.09696 35592 ft 435 kts 252°
2026-05-05 03:40 50.72081 143.00666 35594 ft 435 kts 252°
2026-05-05 03:40 50.70060 142.91673 35600 ft 435 kts 252°
2026-05-05 03:41 50.68045 142.82741 35602 ft 434 kts 252°
2026-05-05 03:41 50.66180 142.73657 35611 ft 433 kts 257°
2026-05-05 03:42 50.64668 142.64482 35612 ft 432 kts 257°
2026-05-05 03:42 50.63150 142.55377 35613 ft 432 kts 257°
2026-05-05 03:43 50.61629 142.46239 35625 ft 431 kts 257°
2026-05-05 03:43 50.60097 142.37111 35626 ft 431 kts 256°
2026-05-05 03:44 50.58552 142.28028 35633 ft 430 kts 256°
2026-05-05 03:44 50.56991 142.18891 35635 ft 430 kts 256°
2026-05-05 03:45 50.55437 142.09826 35653 ft 430 kts 256°
2026-05-05 03:45 50.53889 142.00795 35652 ft 429 kts 256°
2026-05-05 03:46 50.52331 141.91752 35652 ft 429 kts 256°
2026-05-05 03:46 50.50767 141.82751 35650 ft 428 kts 256°
2026-05-05 03:47 50.49186 141.73737 35650 ft 427 kts 256°
2026-05-05 03:47 50.47617 141.64775 35649 ft 427 kts 256°
2026-05-05 03:48 50.46025 141.55749 35642 ft 426 kts 256°
2026-05-05 03:48 50.44441 141.46835 35637 ft 426 kts 256°
2026-05-05 03:49 50.42840 141.37866 35633 ft 425 kts 256°
2026-05-05 03:49 50.41248 141.28979 35632 ft 425 kts 256°
2026-05-05 03:50 50.39651 141.20100 35631 ft 425 kts 256°
2026-05-05 03:50 50.38042 141.11197 35628 ft 425 kts 256°
2026-05-05 03:51 50.36428 141.02307 35628 ft 424 kts 256°
2026-05-05 03:51 50.34806 140.93413 35624 ft 424 kts 256°
2026-05-05 03:52 50.33180 140.84565 35623 ft 423 kts 256°
2026-05-05 03:52 50.31541 140.75696 35623 ft 423 kts 256°
2026-05-05 03:53 50.29894 140.66850 35611 ft 423 kts 256°
2026-05-05 03:53 50.28261 140.58083 35604 ft 422 kts 256°
2026-05-05 03:54 50.26615 140.49261 35593 ft 422 kts 256°
2026-05-05 03:54 50.24960 140.40456 35579 ft 422 kts 255°
2026-05-05 03:55 50.23293 140.31656 35564 ft 422 kts 255°
2026-05-05 03:55 50.21628 140.22860 35553 ft 423 kts 256°
2026-05-05 03:56 50.19957 140.14064 35541 ft 423 kts 255°
2026-05-05 03:56 50.18274 140.05276 35535 ft 423 kts 255°
2026-05-05 03:57 50.16589 139.96551 35527 ft 422 kts 255°
2026-05-05 03:57 50.14895 139.87792 35525 ft 421 kts 255°
2026-05-05 03:58 50.13197 139.79071 35521 ft 421 kts 255°
2026-05-05 03:58 50.11491 139.70359 35521 ft 420 kts 255°
2026-05-05 03:59 50.09788 139.61671 35516 ft 419 kts 255°
2026-05-05 03:59 50.08092 139.53008 35518 ft 418 kts 255°
2026-05-05 04:00 50.06383 139.44369 35513 ft 417 kts 255°
2026-05-05 04:00 50.04665 139.35744 35512 ft 417 kts 255°
2026-05-05 04:01 50.02943 139.27134 35508 ft 416 kts 255°
2026-05-05 04:01 50.01504 139.19939 35511 ft 416 kts 255°
2026-05-05 04:02 49.99497 139.09968 35509 ft 416 kts 255°
2026-05-05 04:02 49.97769 139.01418 35508 ft 415 kts 255°
2026-05-05 04:03 49.96318 138.94248 35504 ft 415 kts 255°
2026-05-05 04:03 49.94573 138.85697 35509 ft 415 kts 255°
2026-05-05 04:04 49.92539 138.75784 35514 ft 415 kts 254°
2026-05-05 04:04 49.91071 138.68643 35515 ft 415 kts 254°
2026-05-05 04:05 49.89311 138.60126 35517 ft 414 kts 254°
2026-05-05 04:05 49.87540 138.51627 35518 ft 414 kts 254°
2026-05-05 04:06 49.85760 138.43196 35522 ft 414 kts 254°
2026-05-05 04:06 49.83944 138.34672 35523 ft 414 kts 254°
2026-05-05 04:07 49.82146 138.26257 35524 ft 414 kts 254°
2026-05-05 04:07 49.80338 138.17812 35524 ft 413 kts 254°
2026-05-05 04:08 49.78528 138.09376 35521 ft 413 kts 253°
2026-05-05 04:08 49.76713 138.00937 35523 ft 413 kts 253°
2026-05-05 04:09 49.74891 137.92512 35520 ft 413 kts 253°
2026-05-05 04:09 49.73064 137.84096 35521 ft 413 kts 253°
2026-05-05 04:10 49.71225 137.75686 35515 ft 413 kts 253°
2026-05-05 04:10 49.69381 137.67283 35515 ft 413 kts 253°
2026-05-05 04:11 49.67532 137.58888 35513 ft 413 kts 253°
2026-05-05 04:11 49.65676 137.50500 35508 ft 413 kts 253°
2026-05-05 04:12 49.63815 137.42122 35506 ft 413 kts 253°
2026-05-05 04:12 49.62883 137.37934 35361 ft 414 kts 253°
2026-05-05 04:12 49.61939 137.33702 34551 ft 420 kts 253°
2026-05-05 04:13 49.60989 137.29438 33808 ft 423 kts 253°
2026-05-05 04:13 49.60028 137.25137 32924 ft 421 kts 253°
2026-05-05 04:13 49.59077 137.20912 32101 ft 415 kts 253°
2026-05-05 04:13 49.58127 137.16700 31230 ft 418 kts 252°
2026-05-05 04:14 49.57166 137.12452 30429 ft 419 kts 252°
2026-05-05 04:14 49.56212 137.08247 29506 ft 412 kts 252°
2026-05-05 04:14 49.55272 137.04115 28633 ft 403 kts 252°
2026-05-05 04:14 49.54356 137.00086 28174 ft 395 kts 252°
2026-05-05 04:15 49.53455 136.96114 27493 ft 391 kts 252°
2026-05-05 04:15 49.52560 136.92178 26851 ft 388 kts 252°
2026-05-05 04:15 49.51680 136.88318 26203 ft 386 kts 252°
2026-05-05 04:15 49.50791 136.84433 25567 ft 383 kts 252°
2026-05-05 04:16 49.49908 136.80578 24935 ft 381 kts 252°
2026-05-05 04:16 49.49029 136.76754 24317 ft 378 kts 251°
2026-05-05 04:16 49.48157 136.72950 23695 ft 376 kts 251°
2026-05-05 04:16 49.47287 136.69165 23078 ft 374 kts 251°
2026-05-05 04:17 49.46421 136.65413 22394 ft 371 kts 251°
2026-05-05 04:17 49.45561 136.61699 21808 ft 367 kts 251°
2026-05-05 04:17 49.44565 136.58114 21236 ft 364 kts 243°
2026-05-05 04:17 49.43149 136.54903 20692 ft 363 kts 232°
2026-05-05 04:18 49.41407 136.52093 20141 ft 362 kts 228°
2026-05-05 04:18 49.39640 136.49357 19630 ft 359 kts 228°
2026-05-05 04:18 49.37886 136.46635 19103 ft 357 kts 228°
2026-05-05 04:18 49.36153 136.43942 18593 ft 354 kts 228°
2026-05-05 04:19 49.34423 136.41261 18073 ft 352 kts 228°
2026-05-05 04:19 49.32704 136.38604 17515 ft 350 kts 228°
2026-05-05 04:19 49.30998 136.35966 16957 ft 347 kts 228°
2026-05-05 04:19 49.29304 136.33349 16410 ft 344 kts 228°
2026-05-05 04:20 49.27625 136.30760 15854 ft 342 kts 227°
2026-05-05 04:20 49.25956 136.28187 15300 ft 340 kts 227°
2026-05-05 04:20 49.24292 136.25626 14729 ft 339 kts 227°
2026-05-05 04:20 49.22630 136.23072 14152 ft 339 kts 227°
2026-05-05 04:21 49.20992 136.20554 13592 ft 338 kts 227°
2026-05-05 04:21 49.19315 136.17979 12976 ft 337 kts 227°
2026-05-05 04:21 49.17686 136.15480 12386 ft 335 kts 227°
2026-05-05 04:21 49.16047 136.12965 11810 ft 333 kts 226°
2026-05-05 04:22 49.14417 136.10472 11234 ft 330 kts 226°
2026-05-05 04:22 49.12778 136.07974 10658 ft 328 kts 226°
2026-05-05 04:22 49.11189 136.05552 10128 ft 325 kts 226°
2026-05-05 04:22 49.09622 136.03164 9983 ft 311 kts 226°
2026-05-05 04:23 49.08124 136.00878 9848 ft 298 kts 226°
2026-05-05 04:23 49.06684 135.98679 9722 ft 287 kts 226°
2026-05-05 04:23 49.05295 135.96566 9603 ft 277 kts 226°
2026-05-05 04:23 49.03950 135.94521 9430 ft 270 kts 226°
2026-05-05 04:24 49.02635 135.92526 9270 ft 265 kts 226°
2026-05-05 04:24 49.01328 135.90545 8979 ft 267 kts 226°
2026-05-05 04:24 49.00000 135.88534 8583 ft 268 kts 226°
2026-05-05 04:25 48.97387 135.84573 7726 ft 263 kts 227°
2026-05-05 04:25 48.96119 135.82583 7138 ft 260 kts 227°
2026-05-05 04:25 48.94919 135.80661 6993 ft 241 kts 228°
2026-05-05 04:25 48.93804 135.78868 6796 ft 227 kts 228°
2026-05-05 04:26 48.92739 135.77150 6460 ft 222 kts 228°
2026-05-05 04:26 48.91691 135.75463 6401 ft 219 kts 228°
2026-05-05 04:26 48.90641 135.73792 6301 ft 218 kts 228°
2026-05-05 04:26 48.89587 135.72132 6208 ft 218 kts 227°
2026-05-05 04:27 48.88532 135.70480 6110 ft 218 kts 227°
2026-05-05 04:27 48.87476 135.68829 6003 ft 218 kts 227°
2026-05-05 04:27 48.86419 135.67177 5902 ft 218 kts 227°
2026-05-05 04:27 48.85365 135.65529 5797 ft 217 kts 227°
2026-05-05 04:28 48.84313 135.63882 5694 ft 217 kts 227°
2026-05-05 04:28 48.83264 135.62239 5588 ft 217 kts 227°
2026-05-05 04:28 48.82211 135.60597 5474 ft 217 kts 227°
2026-05-05 04:28 48.81869 135.60064 5435 ft 216 kts 227°
2026-05-05 04:29 48.81383 135.59402 5675 ft 191 kts 219°
2026-05-05 04:29 48.80418 135.58230 6335 ft 189 kts 226°
2026-05-05 04:29 48.79382 135.56660 5917 ft 217 kts 228°
2026-05-05 04:30 48.78376 135.55009 5800 ft 216 kts 229°
2026-05-05 04:30 48.77361 135.53314 5792 ft 218 kts 229°
2026-05-05 04:30 48.76394 135.51415 5580 ft 230 kts 235°
2026-05-05 04:30 48.75346 135.49570 5293 ft 231 kts 226°
2026-05-05 04:31 48.74184 135.47909 5009 ft 229 kts 224°
2026-05-05 04:31 48.73024 135.46317 4731 ft 227 kts 223°
2026-05-05 04:31 48.71866 135.44724 4455 ft 224 kts 224°
2026-05-05 04:31 48.70721 135.43146 4183 ft 222 kts 224°
2026-05-05 04:32 48.69585 135.41580 3906 ft 219 kts 223°
2026-05-05 04:32 48.68485 135.40065 3627 ft 207 kts 223°
2026-05-05 04:32 48.67456 135.38649 3384 ft 194 kts 223°
2026-05-05 04:32 48.66501 135.37336 3160 ft 176 kts 223°
2026-05-05 04:33 48.65656 135.36174 2974 ft 152 kts 223°
2026-05-05 04:33 48.64905 135.35141 2774 ft 141 kts 223°
2026-05-05 04:33 48.64190 135.34159 2610 ft 138 kts 223°
2026-05-05 04:33 48.63487 135.33192 2442 ft 137 kts 223°
2026-05-05 04:34 48.62788 135.32232 2272 ft 136 kts 222°
2026-05-05 04:34 48.62085 135.31268 2102 ft 137 kts 223°
2026-05-05 04:34 48.61376 135.30296 1929 ft 138 kts 221°
2026-05-05 04:34 48.60683 135.29345 1754 ft 135 kts 221°
2026-05-05 04:35 48.59972 135.28371 1595 ft 135 kts 221°
2026-05-05 04:35 48.59275 135.27415 1421 ft 135 kts 221°
2026-05-05 04:35 48.58579 135.26463 1258 ft 135 kts 221°
2026-05-05 04:35 48.57888 135.25516 1096 ft 134 kts 221°
2026-05-05 04:36 48.57195 135.24568 953 ft 134 kts 221°
2026-05-05 04:36 48.56506 135.23626 825 ft 133 kts 220°
2026-05-05 04:36 48.55828 135.22698 694 ft 133 kts 220°
2026-05-05 04:36 48.55141 135.21760 558 ft 133 kts 219°
2026-05-05 04:37 48.54455 135.20823 403 ft 133 kts 219°
2026-05-05 04:37 48.53770 135.19886 252 ft 132 kts 220°
2026-05-05 04:37 48.53172 135.19091 251 ft 80 kts 223°
2026-05-05 04:37 48.52917 135.18733 249 ft 41 kts 221°
2026-05-05 04:38 48.52727 135.18474 245 ft 31 kts 223°
2026-05-05 04:38 48.52568 135.18260 242 ft 24 kts 224°
2026-05-05 04:38 48.52459 135.18095 241 ft 13 kts 222°
2026-05-05 04:38 48.52387 135.17996 243 ft 15 kts 221°
2026-05-05 04:39 48.52308 135.17888 245 ft 15 kts 223°
2026-05-05 04:39 48.52309 135.17749 246 ft 16 kts 310°
2026-05-05 04:39 48.52354 135.17675 246 ft 9 kts 312°
2026-05-05 04:39 48.52402 135.17595 246 ft 12 kts 311°
2026-05-05 04:40 48.52453 135.17512 245 ft 11 kts 313°
2026-05-05 04:40 48.52510 135.17416 245 ft 14 kts 312°
2026-05-05 04:40 48.52553 135.17345 245 ft 8 kts 312°
2026-05-05 04:40 48.52584 135.17294 245 ft 5 kts 312°
2026-05-05 04:41 48.52588 135.17287 245 ft 0 kts 313°